Location: Brunembert
(50.7122°N, 1.8935°E)
Time: 16:05:14
(UTC+00:00)

Cosmos 1500 Rocket - Pass Details

Date: 30 July 2021
Orbit: 602 x 632 km, 82.5° (Epoch: 23 September)

Event Time Altitude Azimuth Distance (km) Brightness Sun altitude
Exits shadow 21:38:59 24° 134° (SE) 1,309 4.6 -14.5°
Maximum altitude 21:40:49 33° 90° (E) 1,049 4.4 -14.6°
Drops below altitude 10° 21:44:49 10° 27° (NNE) 2,014 6.6 -15.0°
Sets 21:47:13 0° 18° (NNE) 2,931 7.6 -15.2°
